Voltar ao catálogo

FENGYUN 1C DEB

AtivoSSO
NORAD 30443·DEBRIS·🇨🇳 China

Lançado May 10, 1999 de Taiyuan Satellite Launch Center

Loading…

Próximas Passagens (próximas 24 horas)

TLE

AtualizadoSource: Space-Track

Época: Sep 14, 2026, 08:30 UTC

1 30443U 99025AFE 26257.35442046  .00003381  00000-0  10873-2 0  9995
2 30443  98.8607 218.1249 0022972 243.1020 116.7819 14.39879321 13964

Acompanhe FENGYUN 1C DEB em tempo real com AllMySat

Download on the App Store